{"data":{"norad_id":60148,"intl_designator":"2024-120P","name":"STARLINK-32021","alt_names":[],"object_type":"PAYLOAD","status":"ACTIVE","operator":null,"country":"US","launch_date":"2024-06-27","launch_site_code":"AFETR","launch_vehicle":null,"mission":null,"orbit_class":"UNKNOWN","rcs_meters":null,"size_class":null,"mass_kg":null,"dimensions":null,"purposes":["comms"],"wikipedia_slug":null,"has_3d_model":false,"image_url":null,"decayed_at":null,"tle_current":{"epoch":"2026-09-21T22:27:38.588256Z","epoch_age_seconds":57493,"freshness":"FRESH","line1":"1 60148U 24120P   26264.93586329  .00001048  00000+0  45509-4 0  9992","line2":"2 60148  53.1591 116.9204 0001142  84.2886 275.8245 15.31715697126661","mean_motion":15.31715697,"eccentricity":0.0001142,"inclination_deg":53.1591,"raan_deg":116.9204,"arg_perigee_deg":84.2886,"mean_anomaly_deg":275.8245,"bstar":4.5509e-5,"rev_number":12666,"period_min":94.012224515317,"perigee_km":469.9110672758,"apogee_km":471.47534009432,"semimajor_km":6848.8302036851,"source":"CELESTRAK","updated_at":"2026-09-22T09:00:49.179358Z"}}}